When you browse on this site, cookies collect data to enhance your experience and personalize the content and advertising you see.
Visit our Privacy Policy to learn more. By continuing to use the site, you agree to this use of cookies and data.
  • en France
  • Liste des pays
  • À 7 jours
  • Température de l'eau
  • Carte satellitaire
  • Carte météo
  • Widgets météo
  • user-avatar
    Se connecter

    Météo par heure à Accrington

    Ce jour, 18 Juin, Mardi

    Heure Température Précipitation Vent Pression Humidité
    00:00 +9°C° 0 mm 2 m/s 745 mmHg 84%
    01:00 +9°C° 0 mm 2 m/s 745 mmHg 85%
    02:00 +9°C° 0 mm 2 m/s 745 mmHg 86%
    03:00 +8°C° 0 mm 2 m/s 744 mmHg 88%
    04:00 +9°C° 0 mm 2 m/s 745 mmHg 87%
    05:00 +10°C° 0 mm 2 m/s 745 mmHg 86%
    06:00 +12°C° 0 mm 2 m/s 745 mmHg 85%
    07:00 +12°C° 0 mm 3 m/s 745 mmHg 81%
    08:00 +13°C° 0 mm 3 m/s 745 mmHg 78%
    09:00 +14°C° 0 mm 3 m/s 745 mmHg 74%
    10:00 +16°C° 0 mm 3 m/s 745 mmHg 71%
    11:00 +15°C° 0 mm 4 m/s 745 mmHg 69%
    12:00 +17°C° 0 mm 4 m/s 744 mmHg 66%
    13:00 +17°C° 0 mm 3 m/s 744 mmHg 67%
    14:00 +17°C° 0 mm 3 m/s 744 mmHg 68%
    15:00 +17°C° 0 mm 3 m/s 744 mmHg 68%
    16:00 +17°C° 0.1 mm 2 m/s 744 mmHg 72%
    17:00 +16°C° 0.1 mm 2 m/s 744 mmHg 75%
    18:00 +15°C° 0.1 mm 2 m/s 743 mmHg 78%
    19:00 +14°C° 0 mm 1 m/s 743 mmHg 81%
    20:00 +13°C° 0 mm 1 m/s 743 mmHg 83%
    21:00 +11°C° 0 mm 0 m/s 743 mmHg 86%
    22:00 +10°C° 0 mm 0 m/s 743 mmHg 84%
    23:00 +10°C° 0 mm 0 m/s 743 mmHg 83%

    Demain, 19 Juin, Mercredi

    Heure Température Précipitation Vent Pression Humidité
    00:00 +10°C° 0 mm 0 m/s 743 mmHg 82%
    01:00 +10°C° 0 mm 0 m/s 742 mmHg 79%
    02:00 +10°C° 0 mm 0 m/s 742 mmHg 77%
    03:00 +10°C° 0 mm 0 m/s 742 mmHg 74%
    04:00 +11°C° 0 mm 0 m/s 742 mmHg 74%
    05:00 +11°C° 0 mm 0 m/s 742 mmHg 74%
    06:00 +12°C° 0 mm 0 m/s 742 mmHg 75%
    07:00 +14°C° 0 mm 1 m/s 742 mmHg 73%
    08:00 +14°C° 0 mm 1 m/s 742 mmHg 72%
    09:00 +15°C° 0 mm 2 m/s 742 mmHg 70%
    10:00 +16°C° 0.1 mm 2 m/s 742 mmHg 72%
    11:00 +16°C° 0.1 mm 3 m/s 741 mmHg 73%
    12:00 +17°C° 0.1 mm 3 m/s 741 mmHg 74%
    13:00 +17°C° 0.2 mm 3 m/s 741 mmHg 72%
    14:00 +17°C° 0.2 mm 4 m/s 741 mmHg 71%
    15:00 +17°C° 0.2 mm 4 m/s 741 mmHg 70%
    16:00 +15°C° 0 mm 4 m/s 741 mmHg 71%
    17:00 +15°C° 0 mm 4 m/s 741 mmHg 72%
    18:00 +14°C° 0 mm 4 m/s 741 mmHg 73%
    19:00 +13°C° 0 mm 3 m/s 741 mmHg 77%
    20:00 +12°C° 0 mm 2 m/s 741 mmHg 82%
    21:00 +11°C° 0 mm 1 m/s 741 mmHg 86%
    22:00 +10°C° 0 mm 1 m/s 741 mmHg 87%
    23:00 +10°C° 0 mm 1 m/s 741 mmHg 88%

    Après-demain, 20 Juin, Jeudi

    Heure Température Précipitation Vent Pression Humidité
    00:00 +10°C° 0 mm 1 m/s 741 mmHg 88%
    01:00 +10°C° 0 mm 1 m/s 741 mmHg 90%
    02:00 +9°C° 0 mm 2 m/s 741 mmHg 91%
    03:00 +10°C° 0 mm 2 m/s 741 mmHg 93%
    04:00 +10°C° 0.1 mm 3 m/s 741 mmHg 92%
    05:00 +10°C° 0.1 mm 3 m/s 741 mmHg 90%
    06:00 +11°C° 0.1 mm 4 m/s 742 mmHg 89%
    07:00 +11°C° 0.3 mm 4 m/s 742 mmHg 87%
    08:00 +12°C° 0.3 mm 5 m/s 742 mmHg 84%
    09:00 +11°C° 0.3 mm 6 m/s 742 mmHg 82%
    10:00 +11°C° 0.2 mm 6 m/s 742 mmHg 77%
    11:00 +13°C° 0.2 mm 6 m/s 742 mmHg 73%
    12:00 +14°C° 0.2 mm 6 m/s 742 mmHg 69%
    13:00 +14°C° 0 mm 6 m/s 743 mmHg 67%
    14:00 +14°C° 0 mm 6 m/s 743 mmHg 66%
    15:00 +14°C° 0 mm 6 m/s 743 mmHg 65%
    16:00 +13°C° 0 mm 6 m/s 743 mmHg 67%
    17:00 +13°C° 0 mm 5 m/s 743 mmHg 69%
    18:00 +12°C° 0 mm 5 m/s 743 mmHg 70%
    19:00 +11°C° 0 mm 4 m/s 744 mmHg 75%
    20:00 +10°C° 0 mm 3 m/s 744 mmHg 80%
    21:00 +9°C° 0 mm 2 m/s 744 mmHg 86%
    22:00 +9°C° 0 mm 2 m/s 744 mmHg 86%
    23:00 +9°C° 0 mm 2 m/s 745 mmHg 87%

    21 Juin, Vendredi

    Heure Température Précipitation Vent Pression Humidité
    00:00 +8°C° 0 mm 2 m/s 745 mmHg 87%
    01:00 +8°C° 0.1 mm 2 m/s 745 mmHg 88%
    02:00 +8°C° 0.1 mm 2 m/s 745 mmHg 90%
    03:00 +8°C° 0.1 mm 2 m/s 745 mmHg 91%
    04:00 +8°C° 0.1 mm 2 m/s 745 mmHg 90%
    05:00 +9°C° 0.1 mm 3 m/s 745 mmHg 89%
    06:00 +10°C° 0.1 mm 4 m/s 746 mmHg 88%
    07:00 +11°C° 0.3 mm 4 m/s 746 mmHg 84%
    08:00 +11°C° 0.3 mm 4 m/s 746 mmHg 81%
    09:00 +12°C° 0.3 mm 5 m/s 746 mmHg 77%
    10:00 +13°C° 0.3 mm 5 m/s 747 mmHg 76%
    11:00 +13°C° 0.3 mm 5 m/s 747 mmHg 74%
    12:00 +13°C° 0.3 mm 5 m/s 747 mmHg 73%
    13:00 +13°C° 0.1 mm 5 m/s 747 mmHg 70%
    14:00 +14°C° 0.1 mm 5 m/s 747 mmHg 67%
    15:00 +14°C° 0.1 mm 5 m/s 747 mmHg 64%
    16:00 +13°C° 0 mm 5 m/s 748 mmHg 67%
    17:00 +13°C° 0 mm 5 m/s 748 mmHg 69%
    18:00 +12°C° 0 mm 4 m/s 748 mmHg 71%
    19:00 +11°C° 0 mm 3 m/s 748 mmHg 77%
    20:00 +9°C° 0 mm 2 m/s 749 mmHg 82%
    21:00 +9°C° 0 mm 1 m/s 749 mmHg 88%
    22:00 +9°C° 0 mm 1 m/s 749 mmHg 88%
    23:00 +8°C° 0 mm 1 m/s 749 mmHg 89%

    22 Juin, Samedi

    Heure Température Précipitation Vent Pression Humidité
    00:00 +7°C° 0 mm 0 m/s 749 mmHg 89%
    01:00 +7°C° 0 mm 0 m/s 749 mmHg 89%
    02:00 +6°C° 0 mm 0 m/s 749 mmHg 90%
    03:00 +6°C° 0 mm 0 m/s 749 mmHg 90%
    04:00 +7°C° 0 mm 0 m/s 749 mmHg 88%
    05:00 +8°C° 0 mm 0 m/s 750 mmHg 87%
    06:00 +10°C° 0 mm 0 m/s 750 mmHg 85%
    07:00 +12°C° 0 mm 1 m/s 750 mmHg 79%
    08:00 +14°C° 0 mm 1 m/s 750 mmHg 73%
    09:00 +15°C° 0 mm 1 m/s 750 mmHg 67%
    10:00 +16°C° 0.1 mm 1 m/s 750 mmHg 64%
    11:00 +18°C° 0.1 mm 1 m/s 750 mmHg 62%
    12:00 +19°C° 0.1 mm 1 m/s 750 mmHg 59%
    13:00 +18°C° 0.1 mm 1 m/s 750 mmHg 61%
    14:00 +17°C° 0.1 mm 2 m/s 750 mmHg 62%
    15:00 +17°C° 0.1 mm 2 m/s 749 mmHg 64%
    16:00 +17°C° 0.1 mm 2 m/s 749 mmHg 67%
    17:00 +17°C° 0.1 mm 2 m/s 749 mmHg 69%
    18:00 +16°C° 0.1 mm 2 m/s 749 mmHg 72%
    19:00 +15°C° 0 mm 1 m/s 750 mmHg 76%
    20:00 +13°C° 0 mm 1 m/s 750 mmHg 79%
    21:00 +12°C° 0 mm 1 m/s 750 mmHg 83%
    22:00 +11°C° 0 mm 1 m/s 750 mmHg 84%
    23:00 +11°C° 0 mm 1 m/s 750 mmHg 84%

    23 Juin, Dimanche

    Heure Température Précipitation Vent Pression Humidité
    00:00 +11°C° 0 mm 1 m/s 750 mmHg 85%
    01:00 +10°C° 0 mm 1 m/s 750 mmHg 86%
    02:00 +10°C° 0 mm 1 m/s 750 mmHg 87%
    03:00 +10°C° 0 mm 1 m/s 750 mmHg 88%
    04:00 +11°C° 0 mm 1 m/s 751 mmHg 88%
    05:00 +12°C° 0 mm 1 m/s 751 mmHg 88%
    06:00 +13°C° 0 mm 2 m/s 751 mmHg 87%
    07:00 +14°C° 0 mm 2 m/s 751 mmHg 84%
    08:00 +14°C° 0 mm 3 m/s 751 mmHg 80%
    09:00 +16°C° 0 mm 3 m/s 751 mmHg 77%
    10:00 +17°C° 0.4 mm 3 m/s 752 mmHg 76%
    11:00 +17°C° 0.4 mm 3 m/s 752 mmHg 74%
    12:00 +18°C° 0.4 mm 4 m/s 752 mmHg 73%
    13:00 +18°C° 0.4 mm 3 m/s 751 mmHg 72%
    14:00 +18°C° 0.4 mm 3 m/s 751 mmHg 72%
    15:00 +19°C° 0.4 mm 3 m/s 751 mmHg 72%
    16:00 +18°C° 0.1 mm 4 m/s 751 mmHg 72%
    17:00 +18°C° 0.1 mm 4 m/s 751 mmHg 72%
    18:00 +16°C° 0.1 mm 5 m/s 751 mmHg 73%
    19:00 +14°C° 0 mm 4 m/s 752 mmHg 73%
    20:00 +13°C° 0 mm 4 m/s 752 mmHg 73%
    21:00 +11°C° 0 mm 4 m/s 752 mmHg 73%
    22:00 +10°C° 0 mm 4 m/s 752 mmHg 75%
    23:00 +10°C° 0 mm 4 m/s 752 mmHg 78%
    Voir plus